Weather History for KOEO - October, 2013

Change the Weather History Date:

Tuesday, October 15, 2013

  Actual Average (KMSP) Record (KMSP)
Temperature  
Mean Temperature 50 °F 49 °F  
Max Temperature 54 °F 59 °F 85 °F (1968)
Min Temperature 45 °F 40 °F 21 °F (1876)
Degree Days  
Heating Degree Days 15 16  
Month to date heating degree days 197  
Since 1 July heating degree days 370  
Cooling Degree Days 0 0  
Month to date cooling degree days 3  
Year to date cooling degree days 750  
Moisture  
Dew Point 49 °F    
Average Humidity 98    
Maximum Humidity 100    
Minimum Humidity 93    
Precipitation  
Precipitation 0.69 in 0.08 in 1.24 in (1966)
Month to date precipitation 1.34  
Year to date precipitation 26.59  
Snow  
Snow 0.00 in 0.00 in 0.30 in (1992)
Month to date snowfall 0.0  
Since 1 July snowfall T  
Since 1 September snowfall T  
Snow Depth -    
Sea Level Pressure  
Sea Level Pressure 29.79 in    
Wind  
Wind Speed 11 mph (SE)    
Max Wind Speed 17 mph    
Max Gust Speed 23 mph    
Visibility 7 miles    
Events Rain    
T = Trace of Precipitation, MM = Missing Value Source: NWS Daily Summary

Daily Weather History Graph

Daily Weather History Graph

Search for Another Location

Airport or City:

Trip Planner

Search our weather history database for the weather conditions in past years. The results will help you decide how hot, cold, wet, or windy it might be!

Date:

Astronomy

Oct. 15, 2013 Rise Set
Actual Time 7:27 AM CDT 6:25 PM CDT
Civil Twilight 6:57 AM CDT 6:54 PM CDT
Nautical Twilight 6:23 AM CDT 7:28 PM CDT
Astronomical Twilight 5:48 AM CDT 8:03 PM CDT
Moon 4:37 PM CDT (10/15) 3:41 AM CDT (10/15)
Length of Visible Light 11h 57m
Length of Day
10h 57m
Waxing Gibbous, 88% of the Moon is Illuminated
Oct 15
Waxing Gibbous
Oct 18
Full
Oct 26
Last Quarter
Nov 3
New
Nov 9
First Quarter

Hourly Weather History & Observations

Time (CDT) Temp. Windchill Dew Point Humidity Pressure Visibility Wind Dir Wind Speed Gust Speed Precip Events Conditions
12:15 AM 49.1 °F - 47.3 °F 93% 30.04 in 10.0 mi East 9.2 mph - 0.02 in Rain Rain
12:35 AM 48.6 °F - 47.3 °F 95% 30.03 in 7.0 mi East 11.5 mph 17.3 mph 0.08 in Rain Heavy Rain
12:55 AM 48.4 °F - 47.3 °F 96% 30.00 in 7.0 mi East 13.8 mph 17.3 mph 0.16 in Rain Rain
1:15 AM 48.2 °F - 47.3 °F 97% 30.00 in 7.0 mi East 12.7 mph 19.6 mph 0.06 in Rain Rain
1:35 AM 47.8 °F - 46.8 °F 96% 29.98 in 10.0 mi East 15.0 mph 21.9 mph 0.11 in Rain Light Rain
1:55 AM 47.5 °F - 46.4 °F 96% 29.98 in 7.0 mi East 15.0 mph 19.6 mph 0.15 in Rain Light Rain
2:15 AM 47.3 °F - 46.4 °F 97% 29.96 in 7.0 mi ESE 16.1 mph 23.0 mph 0.04 in Rain Rain
2:35 AM 47.3 °F - 46.4 °F 97% 29.95 in 7.0 mi East 13.8 mph 20.7 mph 0.11 in Rain Rain
2:55 AM 47.3 °F - 46.6 °F 97% 29.95 in 7.0 mi ESE 15.0 mph 23.0 mph 0.16 in Rain Rain
3:15 AM 47.3 °F - 46.4 °F 97% 29.92 in 7.0 mi East 17.3 mph - 0.03 in Rain Light Rain
3:35 AM 47.3 °F - 46.6 °F 97% 29.89 in 10.0 mi East 12.7 mph - 0.08 in Rain Light Rain
3:55 AM 47.7 °F - 46.6 °F 96% 29.88 in 10.0 mi ESE 13.8 mph 23.0 mph 0.10 in Rain Rain
4:15 AM 47.7 °F - 46.8 °F 97% 29.88 in 10.0 mi East 13.8 mph 20.7 mph N/A Rain Light Rain
4:35 AM 47.7 °F - 46.6 °F 96% 29.83 in 10.0 mi East 16.1 mph 23.0 mph 0.01 in Rain Rain
4:55 AM 47.8 °F - 46.8 °F 96% 29.84 in 10.0 mi ESE 13.8 mph 20.7 mph 0.01 in   Overcast
5:15 AM 48.2 °F - 46.8 °F 95% 29.84 in 10.0 mi ESE 13.8 mph 17.3 mph N/A   Light Drizzle
5:35 AM 48.2 °F - 46.9 °F 95% 29.82 in 10.0 mi ESE 12.7 mph 20.7 mph 0.01 in Rain Rain
5:55 AM 48.2 °F - 47.3 °F 97% 29.81 in 10.0 mi East 10.4 mph - 0.02 in Rain Rain
6:15 AM 48.2 °F - 47.5 °F 97% 29.80 in 10.0 mi ESE 12.7 mph - N/A   Overcast
6:35 AM 48.4 °F - 47.7 °F 97% 29.79 in 10.0 mi ESE 11.5 mph 17.3 mph N/A   Overcast
6:55 AM 48.4 °F - 47.7 °F 97% 29.79 in 5.0 mi SSE 10.4 mph - N/A   Overcast
7:15 AM 48.6 °F - 48.0 °F 98% 29.78 in 7.0 mi ESE 11.5 mph - N/A   Overcast
7:35 AM 48.7 °F - 48.4 °F 99% 29.77 in 4.0 mi ESE 12.7 mph - N/A Rain Rain
7:55 AM 49.1 °F - 48.7 °F 99% 29.76 in 10.0 mi ESE 12.7 mph - N/A Rain Light Rain
8:15 AM 49.3 °F - 49.1 °F 99% 29.76 in 7.0 mi ESE 11.5 mph - N/A Rain Light Rain
8:35 AM 49.6 °F - 49.3 °F 99% 29.76 in 10.0 mi ESE 11.5 mph - N/A   Overcast
8:55 AM 50.0 °F - 49.6 °F 99% 29.76 in 7.0 mi SE 6.9 mph - N/A   Overcast
9:15 AM 50.2 °F - 50.0 °F 99% 29.75 in 5.0 mi ESE 10.4 mph - N/A Rain Rain
9:35 AM 50.5 °F - 50.2 °F 99% 29.75 in 7.0 mi ESE 9.2 mph - N/A   Overcast
9:55 AM 50.9 °F - 50.5 °F 99% 29.74 in 5.0 mi ESE 8.1 mph - N/A   Overcast
10:15 AM 51.4 °F - 51.4 °F 100% 29.73 in 5.0 mi ESE 10.4 mph - N/A   Overcast
10:35 AM 51.8 °F - 51.6 °F 99% 29.73 in 7.0 mi ESE 12.7 mph - N/A   Overcast
10:55 AM 52.0 °F - 51.8 °F 99% 29.73 in 7.0 mi ESE 10.4 mph - N/A   Overcast
11:15 AM 52.7 °F - 52.5 °F 99% 29.73 in 7.0 mi ESE 8.1 mph - N/A   Overcast
11:35 AM 53.4 °F - 52.7 °F 97% 29.72 in 10.0 mi ESE 9.2 mph - N/A   Overcast
11:55 AM 54.0 °F - 53.4 °F 98% 29.72 in 10.0 mi SE 9.2 mph - N/A   Overcast
12:15 PM 54.9 °F - 53.8 °F 96% 29.71 in 10.0 mi ESE 8.1 mph - N/A   Overcast
12:35 PM 54.7 °F - 53.6 °F 96% 29.71 in 10.0 mi SE 9.2 mph - N/A   Overcast
12:55 PM 54.7 °F - 53.2 °F 95% 29.71 in 10.0 mi ESE 6.9 mph - N/A   Overcast
1:15 PM 54.1 °F - 53.6 °F 98% 29.70 in 4.0 mi SE 6.9 mph - N/A   Drizzle
1:35 PM 53.6 °F - 53.4 °F 99% 29.70 in 2.5 mi SSW 8.1 mph - 0.03 in Rain Rain
1:55 PM 53.1 °F - 52.9 °F 99% 29.70 in 2.5 mi SSW 4.6 mph - 0.04 in   Drizzle
2:15 PM 52.9 °F - 52.9 °F 100% 29.70 in 2.0 mi SSW 9.2 mph - 0.02 in   Heavy Drizzle
2:35 PM 52.7 °F - 52.2 °F 98% 29.70 in 3.0 mi SSW 10.4 mph - 0.03 in   Drizzle
2:55 PM 52.2 °F - 51.8 °F 99% 29.71 in 3.0 mi SW 11.5 mph - 0.03 in Rain Rain
3:15 PM 52.0 °F - 51.4 °F 98% 29.71 in 4.0 mi SW 11.5 mph - N/A   Drizzle
3:35 PM 51.8 °F - 51.3 °F 98% 29.71 in 3.0 mi SSW 9.2 mph - N/A   Drizzle
3:55 PM 51.4 °F - 50.9 °F 98% 29.71 in 4.0 mi SSW 11.5 mph - N/A   Overcast
4:15 PM 51.1 °F - 50.5 °F 98% 29.71 in 4.0 mi SSW 8.1 mph - N/A   Overcast
4:35 PM 50.9 °F - 50.2 °F 97% 29.71 in 4.0 mi SSW 6.9 mph - N/A   Drizzle
4:55 PM 50.5 °F - 50.2 °F 99% 29.72 in 7.0 mi SW 10.4 mph - N/A   Drizzle
5:15 PM 50.4 °F - 50.2 °F 99% 29.72 in 7.0 mi SSW 6.9 mph - 0.01 in   Light Drizzle
5:35 PM 50.0 °F - 49.6 °F 99% 29.72 in 3.0 mi SSW 6.9 mph - 0.01 in   Heavy Drizzle
5:55 PM 49.5 °F - 49.5 °F 100% 29.72 in 2.0 mi SSW 6.9 mph - 0.01 in   Drizzle
6:15 PM 49.3 °F - 49.3 °F 100% 29.72 in 2.0 mi SSW 6.9 mph - N/A   Light Drizzle
6:35 PM 49.3 °F - 49.3 °F 100% 29.73 in 4.0 mi South 5.8 mph - N/A   Light Drizzle
6:55 PM 49.3 °F - 49.3 °F 100% 29.73 in 4.0 mi South 9.2 mph - N/A   Light Drizzle
7:15 PM 49.3 °F - 49.3 °F 100% 29.73 in 7.0 mi SSW 8.1 mph - N/A   Overcast
7:55 PM 49.5 °F - 49.5 °F 100% 29.75 in 5.0 mi WSW 3.5 mph - N/A   Overcast
8:15 PM 49.5 °F - 49.5 °F 100% 29.76 in 3.0 mi North 5.8 mph - N/A Rain Rain
8:35 PM 49.5 °F - 49.5 °F 100% 29.76 in 4.0 mi NNW 5.8 mph - N/A   Drizzle
8:55 PM 49.3 °F - 49.3 °F 100% 29.77 in 3.0 mi NNW 8.1 mph - N/A   Drizzle
9:15 PM 48.9 °F - 48.9 °F 100% 29.78 in 3.0 mi North 8.1 mph 16.1 mph N/A   Drizzle
9:35 PM 48.2 °F - 48.2 °F 100% 29.79 in 4.0 mi NNW 11.5 mph 16.1 mph 0.01 in   Light Drizzle
9:55 PM 48.2 °F - 48.0 °F 99% 29.79 in 7.0 mi North 11.5 mph 17.3 mph 0.01 in   Overcast
10:15 PM 47.7 °F - 47.3 °F 99% 29.80 in 10.0 mi North 10.4 mph - N/A   Overcast
10:35 PM 47.3 °F - 46.6 °F 97% 29.81 in 10.0 mi North 9.2 mph - N/A   Overcast
10:55 PM 46.9 °F - 46.4 °F 98% 29.81 in 10.0 mi North 6.9 mph 17.3 mph N/A   Overcast
11:15 PM 46.4 °F 41.9 °F 45.5 °F 97% 29.82 in 10.0 mi NNW 9.2 mph - N/A   Overcast
11:35 PM 46.4 °F 42.9 °F 45.1 °F 95% 29.83 in 10.0 mi NNW 6.9 mph - N/A   Overcast
11:55 PM 45.9 °F 41.7 °F 45.0 °F 97% 29.83 in 10.0 mi North 8.1 mph 16.1 mph N/A   Overcast